Flag for Cyprus Weather past 2 weeks in Paphos, Cyprus

Now
84 °F

Passing clouds.


Feels Like: 91 °F
Forecast: 75 / 83 °F
Wind: 16 mph from West

Location: Paphos Airport

Current Time: Jul 24, 2014 at 12:14:58 PM

Latest Report: Jul 24, 2014 at 11:30 AM


Visibility: N/A

Pressure: 29.77 "Hg

Humidity: 70%

Dew point: 73 °F

Location of PaphosLocation

Historic Weather in Paphos — Graph

°F

Paphos temperature yesterday

Maximum temperature yesterday: 86 °F (at 1:00 PM)
Minimum temperature yesterday: 70 °F (at 5:30 AM)
Average temperature yesterday: 80 °F

Past Weeks' High & Low Weather Summary

 TemperatureHumidityPressure
High88 °F (Jul 9, 4:00 PM)94% (Jul 20, 1:30 AM)29.86 "Hg (Jul 20, 1:30 AM)
Low68 °F (Jul 24, 5:00 AM)37% (Jul 12, 8:00 AM)29.65 "Hg (Jul 20, 2:30 AM)
Average79 °F78%29.75 "Hg
* Reported Jul 9 11:00 AM — Jul 24 11:00 AM, Paphos, Weather by CustomWeather, © 2014

Note: Actual official high and low records may vary slightly from our data, if they occured in-between our weather recording intervals... More about our weather records

Advertising

Paphos weather history for previous 24 hours

 ConditionsComfort  
Time TempWeatherWind HumidityBarometerVisibility
11:00 AM
Jul 24
82 °FPassing clouds.15 mph74%29.77 "HgN/A
10:30 AM82 °FPassing clouds.12 mph74%29.77 "HgN/A
10:00 AM82 °FPassing clouds.12 mph74%29.77 "HgN/A
9:30 AM81 °FPassing clouds.9 mph74%29.74 "HgN/A
8:30 AM79 °FPassing clouds.6 mph74%29.74 "HgN/A
8:00 AM79 °FPassing clouds.3 mph70%29.74 "HgN/A
7:30 AM77 °FPassing clouds.3 mph69%29.74 "HgN/A
7:00 AM72 °FPassing clouds.2 mph78%29.74 "HgN/A
6:30 AM68 °FPassing clouds.1 mph83%29.74 "HgN/A
6:00 AM68 °FPassing clouds.2 mph83%29.74 "HgN/A
5:30 AM68 °FMild.6 mph83%29.74 "HgN/A
5:00 AM68 °FMild.3 mph88%29.74 "HgN/A
4:30 AM70 °FMild.5 mph88%29.74 "HgN/A
4:00 AM70 °FMild.5 mph88%29.74 "HgN/A
3:30 AM70 °FMild.5 mph88%29.74 "HgN/A
3:00 AM73 °FPassing clouds.6 mph89%29.74 "HgN/A
2:30 AM75 °FPassing clouds.5 mph89%29.74 "HgN/A
2:00 AM77 °FPassing clouds.6 mph89%29.77 "HgN/A
1:30 AM77 °FPassing clouds.7 mph89%29.77 "HgN/A
1:00 AM75 °FPassing clouds.6 mph94%29.77 "HgN/A
12:30 AM77 °FPassing clouds.6 mph89%29.77 "HgN/A
12:00 AM77 °FClear.5 mph89%29.77 "Hg10 mi
11:30 PM
Jul 23
77 °FClear.6 mph94%29.77 "Hg10 mi
11:00 PM79 °FPassing clouds.6 mph89%29.77 "HgN/A
10:00 PM79 °FPassing clouds.7 mph89%29.80 "HgN/A
9:30 PM81 °FPassing clouds.8 mph84%29.77 "HgN/A
9:00 PM81 °FPassing clouds.9 mph84%29.77 "HgN/A
8:30 PM81 °FPassing clouds.14 mph84%29.77 "HgN/A
8:00 PM81 °FPassing clouds.15 mph84%29.77 "HgN/A
7:30 PM81 °FPassing clouds.15 mph84%29.77 "HgN/A
7:00 PM82 °FSunny.16 mph79%29.77 "Hg10 mi
6:30 PM82 °FSunny.17 mph79%29.74 "Hg10 mi
6:00 PM84 °FPassing clouds.18 mph74%29.74 "HgN/A
5:30 PM84 °FPassing clouds.18 mph74%29.74 "HgN/A
5:00 PM86 °FPassing clouds.18 mph70%29.74 "HgN/A
4:00 PM86 °FPassing clouds.20 mph75%29.74 "HgN/A
3:30 PM86 °FPassing clouds.20 mph75%29.74 "HgN/A
3:00 PM86 °FPassing clouds.18 mph75%29.74 "HgN/A
2:30 PM86 °FPassing clouds.17 mph75%29.77 "HgN/A
2:00 PM86 °FPassing clouds.16 mph75%29.77 "HgN/A
1:00 PM86 °FPassing clouds.14 mph75%29.77 "HgN/A
12:30 PM84 °FPassing clouds.12 mph79%29.77 "HgN/A
12:00 PM84 °FPassing clouds.12 mph79%29.77 "HgN/A
Weather by CustomWeather, © 2014

See weather overviewHow to use our weather pages